{"data":{"norad_id":58258,"epoch":"2026-09-21T23:23:11.990976Z","epoch_age_seconds":111888,"freshness":"FRESH","line1":"1 58258U 23174C   26264.97444434  .00024045  00000+0  38363-3 0  9994","line2":"2 58258  97.3741 353.4034 0006495 159.2261 200.9258 15.53193063160473","mean_motion":15.53193063,"eccentricity":0.0006495,"inclination_deg":97.3741,"raan_deg":353.4034,"arg_perigee_deg":159.2261,"mean_anomaly_deg":200.9258,"bstar":0.00038363,"rev_number":16047,"period_min":92.712234834389,"perigee_km":403.00305082172,"apogee_km":411.81747671735,"semimajor_km":6785.5472637695,"source":"CELESTRAK","updated_at":"2026-09-22T09:00:26.574721Z"}}